2024/04/05 00:00:00, 0.0, 6.6
2024/04/05 00:10:00, 0.0, 6.6
2024/04/05 00:20:00, 0.0, 6.4
2024/04/05 00:30:00, 0.0, 6.1
2024/04/05 00:40:00, 0.0, 5.8
2024/04/05 00:50:00, 0.0, 5.7
2024/04/05 01:00:00, 0.0, 5.3
2024/04/05 01:10:00, 0.0, 5.3
2024/04/05 01:20:00, 0.0, 5.0
2024/04/05 01:30:00, 0.1, 4.9
2024/04/05 01:40:00, 0.1, 5.0
2024/04/05 01:50:00, 0.1, 4.8
2024/04/05 02:00:00, 0.1, 5.0
2024/04/05 02:10:00, 0.1, 5.1
2024/04/05 02:20:00, 0.1, 5.0
2024/04/05 02:30:00, 0.1, 5.0
2024/04/05 02:40:00, 0.1, 4.9
2024/04/05 02:50:00, 0.1, 5.0
2024/04/05 03:00:00, 0.2, 5.0
2024/04/05 03:10:00, 0.1, 5.0
2024/04/05 03:20:00, 0.1, 5.0
2024/04/05 03:30:00, 0.1, 4.9
2024/04/05 03:40:00, 0.2, 4.5
2024/04/05 03:50:00, 0.2, 4.5
2024/04/05 04:00:00, 0.2, 4.7
2024/04/05 04:10:00, 0.2, 4.4
2024/04/05 04:20:00, 0.2, 4.3
2024/04/05 04:30:00, 0.2, 4.6
2024/04/05 04:40:00, 0.2, 4.5
2024/04/05 04:50:00, 0.2, 4.6
2024/04/05 05:00:00, 0.2, 4.7
2024/04/05 05:10:00, 0.2, 4.5
2024/04/05 05:20:00, 0.2, 4.6
2024/04/05 05:30:00, 0.2, 4.3
2024/04/05 05:40:00, 0.2, 4.3
2024/04/05 05:50:00, 0.2, 4.5
2024/04/05 06:00:00, 0.2, 4.5
2024/04/05 06:10:00, 0.2, 4.3
2024/04/05 06:20:00, 0.2, 4.6
2024/04/05 06:30:00, 0.2, 4.5
2024/04/05 06:40:00, 0.3, 4.8
2024/04/05 06:50:00, 0.3, 5.4
2024/04/05 07:00:00, 0.3, 5.6
2024/04/05 07:10:00, 0.2, 6.8
2024/04/05 07:20:00, 0.3, 8.3
2024/04/05 07:30:00, 0.2, 8.3
2024/04/05 07:40:00, 0.2, 9.5
2024/04/05 07:50:00, 0.3,11.3
2024/04/05 08:00:00, 0.2,13.3
2024/04/05 08:10:00, 0.2,14.2
2024/04/05 08:20:00, 0.2,15.0
2024/04/05 08:30:00, 0.2,15.9
2024/04/05 08:40:00, 0.2,16.6
2024/04/05 08:50:00, 0.3,17.7
2024/04/05 09:00:00, 0.4,16.9
2024/04/05 09:10:00, 0.4,17.7
2024/04/05 09:20:00, 0.3,14.9
2024/04/05 09:30:00, 0.4,14.5
2024/04/05 09:40:00, 0.6,14.4
2024/04/05 09:50:00, 0.6,14.9
2024/04/05 10:00:00, 0.7,15.4
2024/04/05 10:10:00, 0.5,14.8
2024/04/05 10:20:00, 0.5,15.3
2024/04/05 10:30:00, 0.6,15.8
2024/04/05 10:40:00, 0.4,15.8
2024/04/05 10:50:00, 0.6,15.7
2024/04/05 11:00:00, 0.6,16.1
2024/04/05 11:10:00, 0.5,15.9
2024/04/05 11:30:00, 0.2,16.1
2024/04/05 11:40:00, 0.7,16.3
2024/04/05 11:50:00, 0.7,16.4
2024/04/05 12:00:00, 0.6,16.3
2024/04/05 12:10:00, 0.5,15.6
2024/04/05 12:20:00, 0.5,15.8
2024/04/05 12:30:00, 0.4,15.0
2024/04/05 12:40:00, 0.3,15.5
2024/04/05 12:50:00, 0.3,15.0
2024/04/05 13:00:00, 0.2,14.9
2024/04/05 13:10:00, 0.2,14.5
2024/04/05 13:20:00, 0.2,14.7
2024/04/05 13:30:00, 0.2,14.0
2024/04/05 13:40:00, 0.3,13.8
2024/04/05 13:50:00, 0.3,13.5
2024/04/05 14:00:00, 0.2,13.5
2024/04/05 14:10:00, 0.3,13.6
2024/04/05 14:20:00, 0.3,13.7
2024/04/05 14:30:00, 0.3,14.7
2024/04/05 14:40:00, 0.3,14.9
2024/04/05 14:50:00, 0.1,14.4
2024/04/05 15:00:00, 0.3,14.8
2024/04/05 15:10:00, 0.1,14.3
2024/04/05 15:20:00, 0.1,14.2
2024/04/05 15:30:00, 0.2,13.4
2024/04/05 15:40:00, 0.1,14.0
2024/04/05 15:50:00, 0.2,13.4
2024/04/05 16:00:00, 0.3,13.5
2024/04/05 16:10:00, 0.2,13.0
2024/04/05 16:20:00, 0.2,12.7
2024/04/05 16:30:00, 0.2,13.0
2024/04/05 16:40:00, 0.2,12.2
2024/04/05 16:50:00, 0.1,12.1
2024/04/05 17:00:00, 0.0,11.7
2024/04/05 17:10:00, 0.0,11.0
2024/04/05 17:20:00, 0.0,10.7
2024/04/05 17:30:00, 0.0,10.1
2024/04/05 17:40:00, 0.0, 9.5
2024/04/05 17:50:00, 0.0, 9.0
2024/04/05 18:00:00, 0.1, 8.9
2024/04/05 18:10:00, 0.0, 8.6
2024/04/05 18:20:00, 0.0, 8.5
2024/04/05 18:30:00, 0.0, 7.9
2024/04/05 18:40:00, 0.0, 7.3
2024/04/05 18:50:00, 0.0, 7.3
2024/04/05 19:00:00, 0.0, 7.1
2024/04/05 19:10:00, 0.0, 6.8
2024/04/05 19:20:00, 0.0, 6.5
2024/04/05 19:30:00, 0.0, 6.4
2024/04/05 19:40:00, 0.0, 6.4
2024/04/05 19:50:00, 0.0, 6.1
2024/04/05 20:00:00, 0.0, 6.0
2024/04/05 20:10:00, 0.0, 5.7
2024/04/05 20:20:00, 0.0, 5.9
2024/04/05 20:30:00, 0.0, 5.2
2024/04/05 20:40:00, 0.1, 6.1
2024/04/05 20:50:00, 0.1, 5.5
2024/04/05 21:00:00, 0.1, 5.0
2024/04/05 21:10:00, 0.1, 5.0
2024/04/05 21:20:00, 0.2, 5.0
2024/04/05 21:30:00, 0.2, 5.0
2024/04/05 21:40:00, 0.2, 4.4
2024/04/05 21:50:00, 0.2, 4.6
2024/04/05 22:00:00, 0.2, 4.5
2024/04/05 22:10:00, 0.3, 4.5
2024/04/05 22:20:00, 0.3, 4.2
2024/04/05 22:30:00, 0.3, 4.6
2024/04/05 22:40:00, 0.3, 4.0
2024/04/05 22:50:00, 0.3, 4.4
2024/04/05 23:00:00, 0.3, 4.1
2024/04/05 23:10:00, 0.3, 4.1
2024/04/05 23:20:00, 0.3, 4.0
2024/04/05 23:30:00, 0.3, 4.0
2024/04/05 23:40:00, 0.3, 4.0
2024/04/05 23:50:00, 0.2, 4.0
